Weather History for PAFA - May, 2013

Change the Weather History Date:

Friday, May 17, 2013

  Actual Average Record
Temperature  
Mean Temperature 35 °F 50 °F  
Max Temperature 43 °F 62 °F 77 °F (2015)
Min Temperature 27 °F 38 °F 12 °F (1918)
Degree Days  
Heating Degree Days 30 15  
Month to date heating degree days 496 314  
Since 1 July heating degree days 14655 13338  
Cooling Degree Days 0 0  
Month to date cooling degree days 0 0  
Year to date cooling degree days 0 0  
Moisture  
Dew Point 28 °F    
Average Humidity 73    
Maximum Humidity 85    
Minimum Humidity 51    
Precipitation  
Precipitation 0.04 in 0.02 in 0.80 in (1919)
Month to date precipitation 0.15 0.29  
Year to date precipitation 2.34 1.85  
Snow  
Snow 0.30 in 0.00 in 0.70 in (1992)
Month to date snowfall 2.0 0.7  
Since 1 July snowfall 68.6 64.8  
Snow Depth T in    
Sea Level Pressure  
Sea Level Pressure 29.50 in    
Wind  
Wind Speed 7 mph (WSW)    
Max Wind Speed 15 mph    
Max Gust Speed -    
Visibility 6 miles    
Events Snow    
T = Trace of Precipitation, MM = Missing Value Source: NWS Daily Summary

Daily Weather History Graph

Daily Weather History Graph

Search for Another Location

Airport or City:

Trip Planner

Search our weather history database for the weather conditions in past years. The results will help you decide how hot, cold, wet, or windy it might be!

Date:

Astronomy

May. 17, 2013 Rise Set
Actual Time 4:20 AM AKDT 11:17 PM AKDT
Civil Twilight 2:20 AM AKDT 1:15 AM AKDT
Nautical Twilight Sun does not set Sun does not set
Astronomical Twilight Sun does not set Sun does not set
Moon 12:27 PM AKDT (5/17) 2:56 AM AKDT (5/17)
Length of Visible Light 22h 55m
Length of Day
18h 57m
Waxing Crescent, 46% of the Moon is Illuminated
May 17
Waxing Crescent
May 17
First Quarter
May 24
Full
May 31
Last Quarter
Jun 8
New

Hourly Weather History & Observations

Time (AKDT) Temp. Windchill Dew Point Humidity Pressure Visibility Wind Dir Wind Speed Gust Speed Precip Events Conditions
12:53 AM 44.1 °F 40.8 °F 28.0 °F 53% 29.41 in 10.0 mi North 5.8 mph - N/A   Mostly Cloudy
1:53 AM 42.1 °F 38.4 °F 28.9 °F 60% 29.40 in 10.0 mi North 5.8 mph - N/A   Mostly Cloudy
2:53 AM 42.1 °F 40.2 °F 28.9 °F 60% 29.40 in 10.0 mi WNW 3.5 mph - N/A   Mostly Cloudy
3:53 AM 39.9 °F - 28.0 °F 63% 29.39 in 10.0 mi Calm Calm - N/A   Mostly Cloudy
4:53 AM 36.0 °F - 27.0 °F 70% 29.39 in 10.0 mi Calm Calm - N/A   Mostly Cloudy
5:53 AM 35.1 °F 30.1 °F 28.0 °F 76% 29.41 in 10.0 mi South 5.8 mph - N/A   Mostly Cloudy
6:53 AM 35.1 °F - 28.9 °F 78% 29.42 in 10.0 mi Calm Calm - N/A   Overcast
7:53 AM 37.0 °F - 30.0 °F 76% 29.42 in 10.0 mi Calm Calm - N/A   Overcast
8:53 AM 37.9 °F 31.5 °F 30.9 °F 76% 29.43 in 10.0 mi WSW 9.2 mph - N/A   Overcast
9:53 AM 36.0 °F 30.3 °F 30.9 °F 82% 29.45 in 4.0 mi WSW 6.9 mph - 0.00 in Snow Light Snow
10:34 AM 35.1 °F 27.4 °F 30.9 °F 85% 29.44 in 2.5 mi SW 10.4 mph - 0.00 in Snow Light Snow
10:53 AM 35.1 °F 27.9 °F 30.9 °F 85% 29.46 in 2.0 mi WSW 9.2 mph - 0.00 in Snow Light Snow
11:20 AM 35.1 °F 27.4 °F 30.0 °F 82% 29.45 in 1.5 mi WSW 10.4 mph - 0.01 in Snow Light Snow
11:34 AM 35.1 °F 26.9 °F 30.0 °F 82% 29.46 in 2.0 mi WSW 11.5 mph - 0.01 in Snow Light Snow
11:53 AM 35.1 °F 26.4 °F 28.9 °F 78% 29.48 in 3.0 mi WSW 12.7 mph - 0.01 in Snow Light Snow
12:27 PM 35.1 °F 26.9 °F 28.9 °F 78% 29.46 in 5.0 mi WSW 11.5 mph - 0.00 in Snow Light Snow
12:53 PM 36.0 °F 28.5 °F 28.9 °F 76% 29.50 in 7.0 mi WSW 10.4 mph - 0.00 in Snow Light Snow
1:53 PM 36.0 °F 27.5 °F 28.0 °F 73% 29.51 in 10.0 mi WSW 12.7 mph - 0.00 in   Overcast
2:53 PM 35.1 °F 27.9 °F 28.0 °F 76% 29.53 in 7.0 mi SW 9.2 mph - 0.00 in Snow Light Snow
3:17 PM 35.1 °F 25.9 °F 28.0 °F 76% 29.52 in 2.0 mi WSW 13.8 mph - 0.00 in Snow Light Snow
3:53 PM 35.1 °F 25.9 °F 28.0 °F 76% 29.55 in 2.0 mi West 13.8 mph - 0.00 in Snow Light Snow
4:15 PM 35.1 °F 25.5 °F 27.0 °F 72% 29.53 in 3.0 mi WSW 15.0 mph - 0.00 in Snow Light Snow
4:53 PM 35.1 °F 25.5 °F 26.1 °F 70% 29.56 in 4.0 mi West 15.0 mph - 0.00 in Snow Light Snow
5:53 PM 34.0 °F 26.0 °F 26.1 °F 73% 29.57 in 5.0 mi WSW 10.4 mph - 0.00 in Snow Light Snow
6:53 PM 34.0 °F 26.6 °F 26.1 °F 73% 29.58 in 10.0 mi WSW 9.2 mph - 0.00 in   Overcast
7:53 PM 33.1 °F 23.9 °F 25.0 °F 72% 29.60 in 10.0 mi WSW 12.7 mph - 0.00 in Snow Light Snow
8:53 PM 32.0 °F 23.6 °F 24.1 °F 73% 29.62 in 5.0 mi WSW 10.4 mph - 0.00 in Snow Light Snow
9:11 PM 30.0 °F 19.1 °F 23.0 °F 75% 29.60 in 2.5 mi WSW 15.0 mph - 0.00 in Snow Light Snow
9:53 PM 28.9 °F 18.6 °F 23.0 °F 78% 29.64 in 2.0 mi WSW 12.7 mph - 0.00 in Snow Light Snow
10:53 PM 28.0 °F 19.3 °F 23.0 °F 81% 29.67 in 2.0 mi WSW 9.2 mph - 0.00 in Snow Light Snow
11:53 PM 27.0 °F 16.7 °F 21.0 °F 78% 29.68 in 2.0 mi WSW 11.5 mph - 0.00 in Snow Light Snow